Location: Saint-Maurice-d�Ard�che
(44.5216°N, 4.4002°E)
Time: 14:32:13
(UTC+00:00)

X-37B - Visible Passes

Search period start: 25 February 2021 00:00
Search period end: 07 March 2021 00:00
Orbit: 383 x 391 km, 45.0° (Epoch: 10 February)

Date Brightness Start Highest point End Pass type
(mag) Time Alt. Az. Time Alt. Az. Time Alt. Az.
25 Feb 0.5 05:03:37 40° W 05:04:38 85° N 05:07:49 10° E visible
26 Feb 2.7 04:07:49 27° E 04:07:49 27° E 04:09:25 10° E visible
26 Feb 0.8 05:40:06 13° W 05:42:52 56° SSW 05:45:58 10° ESE visible
27 Feb 0.4 04:44:21 74° WSW 04:44:33 79° SSW 04:47:42 10° ESE visible
28 Feb 3.6 03:48:38 16° E 03:48:38 16° E 03:49:20 10° E visible
28 Feb 1.4 05:20:56 20° W 05:22:41 36° SSW 05:25:37 10° SE visible
01 Mar 1.7 04:25:18 38° SE 04:25:18 38° SE 04:27:30 10° ESE visible
02 Mar 2.0 05:02:03 22° SW 05:02:25 23° SSW 05:05:00 10° SSE visible
03 Mar 3.3 04:06:36 14° SE 04:06:36 14° SE 04:07:09 10° SE visible
04 Mar 3.2 04:43:36 11° S 04:43:36 11° S 04:43:50 10° S visible
